Zurück zum Katalog

MIDAS 5 DEB

AktivPO
NORAD 19981·DEBRIS·🇺🇸 United States

Gestartet Apr 9, 1962 von Vandenberg Space Force Base

Loading…

Nächste Überflüge (nächste 24 Stunden)

TLE

AlterndSource: Space-Track

Epoche: Sep 6, 2026, 12:34 UTC

1 19981U 62010H   26249.52408356 -.00000005  00000-0 -18759-2 0  9992
2 19981  86.6672 303.1067 0338885 191.2609 168.0566  9.43013929313186

Verfolge MIDAS 5 DEB in Echtzeit mit AllMySat

Download on the App Store